(146392) = 2001 QJ114

Discovered at Socorro on 2001-08-17 by LINEAR.

Orbit

Orbit type: Main Belt

Note: WebGL enabled browser required.

epoch2024-03-31.0
epoch JD2460400.5
perihelion date2022-09-10.87177
perihelion JD2459833.37177
argument of perihelion (°)47.66745
ascending node (°)317.39575
inclination (°)14.04595
eccentricity0.1122751
perihelion distance (AU)2.2976037
Tisserand w.r.t. Jupiter3.4
ΔV w.r.t. Earth (km/sec)10.5
semimajor axis (AU)2.5881935
mean anomaly (°)134.24249
mean daily motion (°/day)0.23670570
aphelion distance (AU)2.879
period (years)4.16
P-vector [x]0.98113609
P-vector [y]-0.00532144
P-vector [z]0.19324506
Q-vector [x]-0.10188441
Q-vector [y]0.83529133
Q-vector [z]0.54028507
absolute magnitude15.65
phase slope0.15
uncertainty0
referenceMPEC 2024-E73
observations used825
oppositions15
arc length (days)8242
first opposition used2001
last opposition used2024
residual rms (arc-secs)0.70
perturbers coarse indicatorM-v
perturbers precise indicator003Ek
first observation date used2001-08-11.0
last observation date used2024-03-05.0
computer nameMPCLINUX
JD of orbit computation2456966.770227
perihelion JD uncertainty (days)2.6060E-04
argument of perihelion uncertainty (°)6.8180E-05
ascending node uncertainty (°)2.4659E-05
inclination uncertainty (°)1.1996E-05
eccentricity uncertainty 9.1282E-08
perihelion distance uncertainty (AU)2.4148E-07
Minimum Orbit Intersection Distances (in AU)
for orbit epoch: 2460400.5, reference: E2024-GF4
Mercury1.94135
Venus1.59684
Earth1.31479
Mars0.96299
Jupiter2.5633
Saturn6.41521
Uranus15.6087
Neptune27.5094

Observations

846 total observations over interval: 2001 08 11.49970 – 2024 03 05.159613
These data are available for download (format description).

Date (UT) J2000 RA J2000 Dec Magn Location Ref
2001 08 11.49970 23 12 18.20 +03 32 07.3 19.8   608 – Haleakala-AMOS MPS 34706
2001 08 11.51025 23 12 17.73 +03 32 10.2 20.6   608 – Haleakala-AMOS MPS 34706
2001 08 11.52074 23 12 17.25 +03 32 13.8 20.0   608 – Haleakala-AMOS MPS 34706
2001 08 17.33768 23 07 46.32 +03 58 26.3 18.6   704 – Lincoln Laboratory ETS, New Mexico MPS 33657
2001 08 17.34978 23 07 45.62 +03 58 29.0 19.6   704 – Lincoln Laboratory ETS, New Mexico MPS 33657
2001 08 17.36187 23 07 45.04 +03 58 32.3 19.8   704 – Lincoln Laboratory ETS, New Mexico MPS 33657
2001 08 17.37395 23 07 44.37 +03 58 35.1 19.6   704 – Lincoln Laboratory ETS, New Mexico MPS 33657
2001 08 17.38612 23 07 43.71 +03 58 37.3 19.3   704 – Lincoln Laboratory ETS, New Mexico MPS 33657
2001 08 24.30854 23 01 25.43 +04 22 19.8 18.7 R 699 – Lowell Observatory-LONEOS MPS 34706
2001 08 24.34092 23 01 23.52 +04 22 25.1   699 – Lowell Observatory-LONEOS MPS 34706
2001 08 24.36844 23 01 21.83 +04 22 30.0   699 – Lowell Observatory-LONEOS MPS 34706
2001 08 24.39599 23 01 20.15 +04 22 35.0   699 – Lowell Observatory-LONEOS MPS 34706
2001 08 25.27650 23 00 28.77 +04 24 59.5 18.7   704 – Lincoln Laboratory ETS, New Mexico MPS 33657
2001 08 25.28947 23 00 27.99 +04 25 01.8 19.1   704 – Lincoln Laboratory ETS, New Mexico MPS 33657
2001 08 25.30248 23 00 27.22 +04 25 03.6 19.3   704 – Lincoln Laboratory ETS, New Mexico MPS 33657
2001 08 25.31553 23 00 26.38 +04 25 05.3 18.8   704 – Lincoln Laboratory ETS, New Mexico MPS 33657
2001 08 25.32853 23 00 25.59 +04 25 08.1 19.3   704 – Lincoln Laboratory ETS, New Mexico MPS 33657
2001 09 09.28230 22 44 55.68 +04 47 15.4 18.2 R 699 – Lowell Observatory-LONEOS MPS 34706
2001 09 09.29479 22 44 54.87 +04 47 15.4   699 – Lowell Observatory-LONEOS MPS 34706
2001 09 09.30731 22 44 54.10 +04 47 15.6   699 – Lowell Observatory-LONEOS MPS 34706
2001 09 09.31983 22 44 53.25 +04 47 15.7   699 – Lowell Observatory-LONEOS MPS 34706
2001 09 15.20048 22 38 54.73 +04 47 28.2 19.1   644 – Palomar Mountain/NEAT MPS 36022
2001 09 15.22164 22 38 53.40 +04 47 28.1 19.4   644 – Palomar Mountain/NEAT MPS 36022
2001 09 15.24275 22 38 52.14 +04 47 27.7 19.0   644 – Palomar Mountain/NEAT MPS 36022
2001 09 16.30705 22 37 49.55 +04 47 05.4 19.0   704 – Lincoln Laboratory ETS, New Mexico MPS 36022
2001 09 16.32138 22 37 48.67 +04 47 05.0 18.9   704 – Lincoln Laboratory ETS, New Mexico MPS 36022
2001 09 16.33572 22 37 47.80 +04 47 04.8 19.1   704 – Lincoln Laboratory ETS, New Mexico MPS 36022
2001 09 16.35098 22 37 46.91 +04 47 04.7 18.9   704 – Lincoln Laboratory ETS, New Mexico MPS 36022
2001 09 25.18259 22 29 57.75 +04 40 40.8 18.8   704 – Lincoln Laboratory ETS, New Mexico MPS 49374
2001 09 25.18718 22 29 57.62 +04 40 41.6 18.9   644 – Palomar Mountain/NEAT MPS 49374
2001 09 25.19718 22 29 57.05 +04 40 40.3 18.7   704 – Lincoln Laboratory ETS, New Mexico MPS 49374
2001 09 25.20820 22 29 56.57 +04 40 40.7 19.2   644 – Palomar Mountain/NEAT MPS 49374
2001 09 25.21205 22 29 56.32 +04 40 39.2 18.9   704 – Lincoln Laboratory ETS, New Mexico MPS 49374
2001 09 25.22667 22 29 55.58 +04 40 38.8 18.9   704 – Lincoln Laboratory ETS, New Mexico MPS 49374
2001 09 25.22944 22 29 55.52 +04 40 39.3 18.6   644 – Palomar Mountain/NEAT MPS 49374
2001 09 25.24216 22 29 54.80 +04 40 37.5 18.5   704 – Lincoln Laboratory ETS, New Mexico MPS 49374
2001 10 13.10228 22 20 16.27 +04 23 04.1 19.8   644 – Palomar Mountain/NEAT MPS 39255
2001 10 13.12322 22 20 15.91 +04 23 03.7 19.2   644 – Palomar Mountain/NEAT MPS 39255
2001 10 13.14534 22 20 15.51 +04 23 02.6 19.3   644 – Palomar Mountain/NEAT MPS 39255
2001 11 18.16764 22 30 06.99 +04 56 33.2 20.1   704 – Lincoln Laboratory ETS, New Mexico MPS 43661
2001 11 18.18243 22 30 07.73 +04 56 36.7 20.1   704 – Lincoln Laboratory ETS, New Mexico MPS 43661
2001 11 18.19718 22 30 08.40 +04 56 38.2 19.8   704 – Lincoln Laboratory ETS, New Mexico MPS 43661
2003 01 05.31095 08 34 12.66 +26 47 39.3 18.8   704 – Lincoln Laboratory ETS, New Mexico MPS 71394
2003 01 05.32671 08 34 11.65 +26 47 40.0 19.6   704 – Lincoln Laboratory ETS, New Mexico MPS 71394
2003 01 05.35763 08 34 09.69 +26 47 40.3 19.2   704 – Lincoln Laboratory ETS, New Mexico MPS 71394
2003 01 05.37329 08 34 08.70 +26 47 39.2 19.6   704 – Lincoln Laboratory ETS, New Mexico MPS 71394
2003 01 09.25316 08 30 01.25 +26 46 50.7 19.5   704 – Lincoln Laboratory ETS, New Mexico MPS 71394
2003 01 09.26792 08 30 00.23 +26 46 50.1 19.6   704 – Lincoln Laboratory ETS, New Mexico MPS 71394
2003 01 09.28253 08 29 59.24 +26 46 50.7 19.5   704 – Lincoln Laboratory ETS, New Mexico MPS 71394
2003 01 09.29773 08 29 58.24 +26 46 50.6 19.7   704 – Lincoln Laboratory ETS, New Mexico MPS 71394
2003 01 09.31251 08 29 57.21 +26 46 51.2 20.2   704 – Lincoln Laboratory ETS, New Mexico MPS 71394
2003 01 10.37514 08 28 46.74 +26 46 24.4 19.4   704 – Lincoln Laboratory ETS, New Mexico MPS 71394
2003 01 10.39038 08 28 45.69 +26 46 23.7 19.3   704 – Lincoln Laboratory ETS, New Mexico MPS 71394
2003 01 10.40581 08 28 44.62 +26 46 24.0 19.2   704 – Lincoln Laboratory ETS, New Mexico MPS 71394
2003 01 10.42156 08 28 43.56 +26 46 23.5 19.1 C 704 – Lincoln Laboratory ETS, New Mexico MPS 289763
2003 01 11.31108 08 27 44.10 +26 46 00.2 19.2   704 – Lincoln Laboratory ETS, New Mexico MPS 71394
2003 01 11.32590 08 27 43.06 +26 46 00.4 19.6   704 – Lincoln Laboratory ETS, New Mexico MPS 71394
2003 01 11.34140 08 27 41.91 +26 45 58.6 19.3   704 – Lincoln Laboratory ETS, New Mexico MPS 71394
2003 01 11.37195 08 27 39.85 +26 45 57.7 19.3   704 – Lincoln Laboratory ETS, New Mexico MPS 71394
2003 01 25.202170 08 11 31.181 +26 30 32.28 19.31 V 645 – Apache Point-Sloan Digital Sky Survey MPS 79882
2003 01 25.205642 08 11 30.933 +26 30 31.91 20.15   645 – Apache Point-Sloan Digital Sky Survey MPS 79882
2003 01 25.24076 08 11 28.57 +26 30 28.6 18.7 R 699 – Lowell Observatory-LONEOS MPS 71394
2003 01 25.25497 08 11 27.46 +26 30 28.1   699 – Lowell Observatory-LONEOS MPS 71394
2003 01 25.26931 08 11 26.42 +26 30 26.9   699 – Lowell Observatory-LONEOS MPS 71394
2003 01 25.28363 08 11 25.44 +26 30 24.3   699 – Lowell Observatory-LONEOS MPS 71394
2003 02 01.24797 08 03 31.82 +26 15 12.3 19.0   704 – Lincoln Laboratory ETS, New Mexico MPS 71394
2003 02 01.26319 08 03 30.81 +26 15 09.5 19.4   704 – Lincoln Laboratory ETS, New Mexico MPS 71394
2003 02 01.27845 08 03 29.77 +26 15 06.9 19.6   704 – Lincoln Laboratory ETS, New Mexico MPS 71394
2003 02 01.29375 08 03 28.77 +26 15 05.4 19.3   704 – Lincoln Laboratory ETS, New Mexico MPS 71394
2003 02 01.30911 08 03 27.70 +26 15 03.1 19.3   704 – Lincoln Laboratory ETS, New Mexico MPS 71394
2003 02 04.20774 08 00 22.94 +26 07 14.0 19.2 R 699 – Lowell Observatory-LONEOS MPS 73178
2003 02 04.22107 08 00 22.23 +26 07 11.9   699 – Lowell Observatory-LONEOS MPS 73178
2003 02 04.23440 08 00 21.33 +26 07 10.6   699 – Lowell Observatory-LONEOS MPS 73178
2003 02 04.24777 08 00 20.44 +26 07 07.5   699 – Lowell Observatory-LONEOS MPS 73178
2005 06 20.40160 22 02 44.87 -16 14 21.5 19.9   644 – Palomar Mountain/NEAT MPS 136906
2005 06 20.41530 22 02 44.94 -16 14 17.3 19.8   644 – Palomar Mountain/NEAT MPS 136906
2005 06 20.42741 22 02 45.03 -16 14 13.9 19.7   644 – Palomar Mountain/NEAT MPS 136906
2005 07 04.42697 22 01 42.11 -15 13 14.6 19.0   644 – Palomar Mountain/NEAT MPS 137396
2005 07 04.43783 22 01 41.90 -15 13 12.1 18.9   644 – Palomar Mountain/NEAT MPS 137396
2005 07 04.44934 22 01 41.69 -15 13 09.3 18.9   644 – Palomar Mountain/NEAT MPS 137396
2005 08 02.22547 21 41 59.83 -13 48 16.1 18.6   704 – Lincoln Laboratory ETS, New Mexico MPS 138835
2005 08 02.23716 21 41 59.10 -13 48 14.9 18.5   704 – Lincoln Laboratory ETS, New Mexico MPS 138835
2005 08 02.24897 21 41 58.38 -13 48 12.9 18.6   704 – Lincoln Laboratory ETS, New Mexico MPS 138835
2005 08 02.26080 21 41 57.62 -13 48 11.8 18.7   704 – Lincoln Laboratory ETS, New Mexico MPS 138835
2005 08 02.27248 21 41 56.85 -13 48 10.1 18.1   704 – Lincoln Laboratory ETS, New Mexico MPS 138835
2005 08 06.21903 21 37 50.98 -13 39 11.2 18.8   704 – Lincoln Laboratory ETS, New Mexico MPS 139242
2005 08 06.23088 21 37 50.10 -13 39 09.9 19.2   704 – Lincoln Laboratory ETS, New Mexico MPS 139242
